Orbital Elements at Epoch 2459200.5 (2020-Dec-17.0) TDB
Reference: JPL 29 (heliocentric ecliptic J2000)
Element | Value | Uncertainty (1-sigma) | Units |
e | .1203546840517768 | 3.1587e-08 | |
a | 2.528676718381953 | 1.3594e-08 | au |
q | 2.22433863087201 | 7.9497e-08 | au |
i | 15.46728691997318 | 4.2447e-06 | deg |
node | 86.91818946214914 | 1.4542e-05 | deg |
peri | 224.8091375403059 | 2.4924e-05 | deg |
M | 260.2400419638453 | 2.2275e-05 | deg |
tp | 2459607.497881739406 (2022-Jan-27.99788174) | 9.2104e-05 | TDB |
period | 1468.71791358498 4.02 | 1.1844e-05 3.243e-08 | d yr |
n | .2451117377068543 | 1.9766e-09 | deg/d |
Q | 2.833014805891897 | 1.5231e-08 | au |
|
| | Orbit Determination Parameters
Additional Information
|